METAR Formatted Surface Weather Observation
Issued by NWS Pago Pago

Home | Current Version | Previous Version | Text Only | Print | Product List | Glossary On
Versions: 1 2 3 4 5 6 7 8 9 10 11 12 13 14 15 16 17 18 19 20 21 22 23 24 25 26 27 28 29 30 31 32 33 34 35 36 37 38 39 40 41 42 43 44 45 46 47 48 49 50
000
SAZS31 NSTU 231054
MTRPPG
METAR NSTU 231052Z 10011KT 10SM SCT018TCU BKN035 OVC090 25/24 A2994
RMK TCU W-N-NE SLP141 T02530242 402690250=


USA.gov is the U.S. government's official web portal to all federal, state and local government web resources and services.